[[{"header":{"parameterUnit":"m.s-1","parameterCategory":1,"la1":30.2991,"la2":30.254,"lo1":-89.0895,"lo2":-89.0444,"dy":0.0017,"dx":0.0017,"nx":28,"ny":28,"refTime":"2024-06-18T09:00:00:Z","depth":0,"parameterNumber":2,"parameterNumberName":"U-component_of_WINDS"},"data":[0,0,0,0,0,0,0,0,0,0,0,0,0,0,0,0,0,0,0,0,0,0,0,0,0,0,0,0,0,0,0,0,0,0,0,0,0,0,0,0,0,0,0,0,0,0,0,0,0,0,0,0,0,0,0,0,0,0,-5.5383,-5.5382,0,-5.5269,-5.5268,-5.5266,-5.498,-5.4974,-5.4968,-5.4962,-5.4852,-5.4855,-5.4857,0,0,0,0,0,0,0,0,0,0,0,0,0,-5.536,-5.5362,-5.5383,-5.5382,-5.538,-5.5269,-5.5268,-5.5266,-5.4981,-5.4973,-5.4966,-5.4959,-5.4851,-5.4854,-5.4858,0,0,0,0,0,0,0,0,0,0,0,0,0,-5.5321,-5.5362,-5.5384,-5.5224,-5.5209,-5.527,-5.5268,-5.5266,-5.4982,-5.4973,-5.4964,-5.4956,-5.485,-5.4854,-5.4858,-5.5066,0,0,-5.4871,-5.4872,0,0,0,0,0,0,0,0,-5.5323,-5.5322,-5.5249,-5.5235,-5.5218,-5.5129,-5.5219,-5.5199,-5.4985,-5.5069,-5.4962,-5.4951,-5.4952,-5.4947,-5.4946,-5.5061,-5.5056,-5.4871,-5.4874,-5.4875,-5.4876,0,0,0,0,0,0,0,-5.5326,-5.5325,-5.5338,-5.5249,-5.523,-5.5161,-5.5145,-5.5214,-5.5063,-5.5061,-5.504,-5.503,-5.4942,-5.4943,-5.4941,-5.5054,-5.4871,-5.4875,-5.4877,-5.4879,-5.5332,-5.5341,0,0,0,0,0,0,-5.5351,-5.5329,-5.5342,-5.5335,-5.5249,-5.5169,-5.5151,-5.5167,-5.5062,-5.5037,-5.5038,-5.5017,-5.494,-5.4937,-5.4936,-5.517,-5.4875,-5.4879,-5.4881,-5.5322,-5.5334,-5.5344,0,0,0,0,0,0,-5.5352,-5.5355,-5.5346,-5.5326,-5.532,-5.5179,-5.5199,-5.517,-5.517,-5.5044,-5.5016,-5.5066,-5.4933,-5.4931,-5.5035,-5.5162,-5.4881,-5.4885,-5.5311,-5.5326,-5.5339,-5.5641,0,0,0,0,0,0,-5.5352,-5.5357,-5.5433,-5.533,-5.5322,-5.5446,-5.5207,-5.5174,-5.5177,-5.5149,-5.5063,-5.504,-5.4926,-5.503,-5.5039,-5.5163,-5.4888,-5.5299,-5.5318,-5.5334,-5.5619,-5.5664,-5.5703,0,0,0,0,0,-5.5352,-5.5525,-5.5438,-5.5441,-5.5414,-5.5454,-5.5449,-5.5312,-5.5189,-5.5264,-5.5183,-5.5043,-5.5148,-5.5043,-5.5051,-5.5178,-5.529,-5.5312,-5.5333,-5.56,-5.5655,-5.5702,0,0,0,0,0,0,-5.5649,-5.5508,-5.5411,-5.5554,-5.5518,-5.5405,-5.5496,-5.5375,-5.5374,-5.5348,-5.518,-5.5163,-5.529,-5.5245,-5.5131,-5.5372,-5.5196,-5.522,-5.5397,-5.5448,-5.5489,-5.5496,-5.4891,0,0,0,0,0,-5.5731,-5.5773,-5.5648,-5.5787,-5.5774,-5.564,-5.5652,-5.5549,-5.5505,-5.5489,-5.5415,-5.538,-5.5404,-5.5424,-5.544,-5.5612,-5.5589,-5.5704,-5.5745,-5.578,-5.5802,-5.5888,-5.5937,-5.5415,-5.5415,-5.5414,0,0,-5.5901,-5.5829,-5.5866,-5.5845,-5.5804,-5.5853,-5.5628,-5.569,-5.5724,-5.5499,-5.559,-5.5537,-5.5486,-5.5625,-5.5682,-5.5591,-5.5941,-5.5808,-5.5836,-5.5839,-5.5915,-5.5965,-5.6009,-5.5429,-5.5427,-5.5424,0,0,-5.6233,-5.6185,-5.6293,-5.6257,-5.6197,-5.6106,-5.6134,-5.6039,-5.5993,-5.6083,-5.5914,-5.5955,-5.6001,-5.5971,-5.5962,-5.6285,-5.6155,-5.6296,-5.6512,-5.6598,-5.6639,-5.6674,-5.6787,-5.683,-5.6318,-5.6319,-5.632,0,-5.6452,-5.6516,-5.6365,-5.6436,-5.6431,-5.6228,-5.6337,-5.631,-5.6262,-5.6264,-5.6162,-5.6214,-5.6166,-5.6294,-5.6372,-5.6373,-5.6398,-5.6303,-5.6645,-5.6679,-5.671,-5.6815,-5.6859,-5.6336,-5.6334,-5.6333,-5.6331,0,-5.6787,-5.6834,-5.693,-5.6883,-5.689,-5.6981,-5.6845,-5.687,-5.6768,-5.6689,-5.6783,-5.6719,-5.6717,-5.674,-5.6643,-5.6855,-5.6799,-5.6675,-5.6493,-5.6779,-5.6875,-5.6915,-5.6361,-5.6355,-5.635,-5.6345,0,0,-5.7301,-5.717,-5.7207,-5.7182,-5.7102,-5.7137,-5.7219,-5.7215,-5.7239,-5.7213,-5.7277,-5.7321,-5.7204,-5.7194,-5.7091,-5.7168,-5.7424,-5.7032,-5.7028,-5.7105,-5.7652,-5.7744,-5.7793,-5.7339,-5.7346,-5.7352,-5.7655,0,-5.7612,-5.774,-5.7607,-5.7763,-5.7804,-5.7613,-5.7684,-5.7644,-5.7573,-5.7599,-5.7522,-5.7554,-5.7399,-5.7391,-5.7458,-5.7379,-5.7531,-5.7356,-5.7397,-5.74,-5.7411,-5.7843,-5.7941,-5.823,-5.7692,-5.7698,-5.7703,0,-5.799,-5.7978,-5.8138,-5.8046,-5.8058,-5.8124,-5.8108,-5.8136,-5.8088,-5.8031,-5.8021,-5.7895,-5.797,-5.7797,-5.7898,-5.7781,-5.7791,-5.7755,-5.7763,-5.7759,-5.7566,-5.7848,-5.8319,-5.8361,-5.7761,-5.7756,-5.7752,0,-5.8345,-5.8369,-5.8467,-5.8453,-5.8349,-5.84,-5.836,-5.8301,-5.8307,-5.8295,-5.8297,-5.8296,-5.8295,-5.8298,-5.8177,-5.8062,-5.8293,-5.8109,-5.8247,-5.8251,-5.8301,-5.8299,-5.8777,-5.8315,-5.8314,-5.8313,-5.8312,0,-5.8703,-5.8808,-5.8624,-5.8685,-5.8796,-5.8644,-5.876,-5.87,-5.8651,-5.8697,-5.8534,-5.8581,-5.8419,-5.845,-5.8357,-5.8453,-5.8455,-5.8411,-5.8385,-5.8424,-5.8429,-5.8425,-5.8401,-5.8325,-5.8322,-5.832,-5.8318,0,-5.9117,-5.8998,-5.9091,-5.8985,-5.8961,-5.9049,-5.8958,-5.901,-5.8929,-5.899,-5.8995,-5.8869,-5.8897,-5.8776,-5.8785,-5.8722,-5.8866,-5.8808,-5.8882,-5.8862,-5.9006,-5.8993,-5.9495,-5.9552,-5.9058,-5.9062,-5.9067,0,-5.9351,-5.9426,-5.9328,-5.9345,-5.9313,-5.9345,-5.9348,-5.9203,-5.9214,-5.9164,-5.9223,-5.9237,-5.9239,-5.9293,-5.9203,-5.9209,-5.9147,-5.9323,-5.9147,-5.9183,-5.9146,-5.9141,-5.9147,-5.9359,-5.9365,-5.937,-5.9374,0,-5.9779,-5.9716,-5.9726,-5.9718,-5.9726,-5.9713,-5.9689,-5.9714,-5.9557,-5.9578,-5.9603,-5.9606,-5.9612,-5.9628,-5.9615,-5.9575,-5.945,-5.9431,-5.9462,-5.9501,-5.9539,-5.9517,-5.8978,-5.9419,-5.9414,-5.9411,-5.9409,-5.9407,-6.0106,-6.0164,-6.0103,-6.012,-6.0086,-6.0067,-6.011,-6.0034,-6.0051,-6.0043,-5.9957,-5.9999,-5.9948,-5.9917,-5.989,-5.9921,-5.9838,-5.9885,-5.9896,-5.9909,-5.9933,-5.9538,-5.9919,-5.9918,-5.9916,-5.9915,-5.9914,0,-6.0522,-6.0474,-6.0491,-6.0461,-6.0475,-6.0354,-6.0321,-6.0342,-6.0379,-6.0342,-6.0347,-6.0376,-6.0391,-6.0303,-6.0306,-6.0348,-6.029,-6.0353,-6.0347,-6.0339,-6.0008,-5.9979,-6.04,-6.04,-6.04,-6.04,-6.0399,-6.0399,-6.074,-6.0829,-6.076,-6.0832,-6.0782,-6.0819,-6.0811,-6.0793,-6.0762,-6.08,-6.0811,-6.0752,-6.0695,-6.0692,-6.0701,-6.0674,-6.0682,-6.0765,-6.0719,-6.041,-6.0363,-6.0318,-6.0289,-6.0769,-6.0769,-6.1046,-6.1049,-6.1051]},{"header":{"parameterUnit":"m.s-1","parameterCategory":1,"la1":30.2991,"la2":30.254,"lo1":-89.0895,"lo2":-89.0444,"dy":0.0017,"dx":0.0017,"nx":28,"ny":28,"refTime":"2024-06-18T09:00:00:Z","depth":0,"parameterNumber":3,"parameterNumberName":"V-component_of_WINDS"},"data":[0,0,0,0,0,0,0,0,0,0,0,0,0,0,0,0,0,0,0,0,0,0,0,0,0,0,0,0,0,0,0,0,0,0,0,0,0,0,0,0,0,0,0,0,0,0,0,0,0,0,0,0,0,0,0,0,0,0,-0.42,-0.4201,0,-0.4317,-0.4318,-0.432,-0.4519,-0.4523,-0.4526,-0.453,-0.4644,-0.4644,-0.4643,0,0,0,0,0,0,0,0,0,0,0,0,0,-0.4143,-0.4143,-0.42,-0.4201,-0.4203,-0.4317,-0.4318,-0.432,-0.4518,-0.4523,-0.4527,-0.4532,-0.4644,-0.4644,-0.4643,0,0,0,0,0,0,0,0,0,0,0,0,0,-0.4204,-0.4143,-0.42,-0.4316,-0.4327,-0.4316,-0.4318,-0.432,-0.4517,-0.4523,-0.4529,-0.4534,-0.4645,-0.4644,-0.4643,-0.4527,0,0,-0.4641,-0.4641,0,0,0,0,0,0,0,0,-0.42,-0.4206,-0.4297,-0.4308,-0.4321,-0.4409,-0.4341,-0.4389,-0.4516,-0.4445,-0.453,-0.4537,-0.4561,-0.4568,-0.4577,-0.4532,-0.4537,-0.4641,-0.4641,-0.4641,-0.464,0,0,0,0,0,0,0,-0.4196,-0.4202,-0.4246,-0.4298,-0.4313,-0.436,-0.4375,-0.4351,-0.447,-0.4452,-0.4466,-0.4478,-0.4569,-0.4577,-0.4581,-0.4539,-0.4641,-0.4641,-0.464,-0.464,-0.4402,-0.4397,0,0,0,0,0,0,-0.4175,-0.4197,-0.4243,-0.425,-0.4273,-0.4357,-0.4373,-0.4375,-0.4471,-0.4491,-0.4473,-0.4487,-0.4576,-0.4582,-0.4586,-0.4455,-0.4641,-0.464,-0.464,-0.4408,-0.4401,-0.4395,0,0,0,0,0,0,-0.4173,-0.4178,-0.4238,-0.4228,-0.4239,-0.4352,-0.4352,-0.4374,-0.4384,-0.4487,-0.4509,-0.446,-0.458,-0.4587,-0.454,-0.4462,-0.464,-0.4639,-0.4415,-0.4406,-0.4398,-0.4192,0,0,0,0,0,0,-0.4171,-0.4176,-0.4134,-0.4225,-0.4239,-0.4191,-0.4347,-0.4373,-0.4382,-0.4401,-0.4481,-0.4499,-0.4585,-0.454,-0.4539,-0.4464,-0.4639,-0.4423,-0.4411,-0.4401,-0.4206,-0.4177,-0.4152,0,0,0,0,0,-0.4168,-0.4071,-0.4131,-0.4135,-0.4189,-0.4186,-0.4194,-0.4296,-0.4375,-0.4333,-0.44,-0.4497,-0.447,-0.4534,-0.4535,-0.4458,-0.4428,-0.4414,-0.4402,-0.4218,-0.4182,-0.4152,0,0,0,0,0,0,-0.3966,-0.4085,-0.4153,-0.4082,-0.4123,-0.422,-0.417,-0.4255,-0.4273,-0.429,-0.4415,-0.4431,-0.4367,-0.4408,-0.4476,-0.4349,-0.4464,-0.4451,-0.4324,-0.4292,-0.4265,-0.4255,-0.4638,0,0,0,0,0,-0.3913,-0.3902,-0.4007,-0.3934,-0.3951,-0.4056,-0.4059,-0.4134,-0.418,-0.4198,-0.4261,-0.43,-0.4301,-0.4299,-0.4306,-0.4213,-0.4232,-0.4161,-0.4133,-0.4111,-0.4097,-0.4049,-0.4017,-0.4351,-0.4351,-0.4351,0,0,-0.3804,-0.3868,-0.3853,-0.3895,-0.3935,-0.3919,-0.4069,-0.4047,-0.4035,-0.4194,-0.4154,-0.4201,-0.4253,-0.4182,-0.4154,-0.4214,-0.4009,-0.4094,-0.4075,-0.4074,-0.4032,-0.4,-0.3972,-0.4342,-0.4344,-0.4345,0,0,-0.3596,-0.3644,-0.3589,-0.3626,-0.3685,-0.3756,-0.3742,-0.3826,-0.3864,-0.3826,-0.3944,-0.3931,-0.393,-0.3962,-0.3978,-0.378,-0.3869,-0.3779,-0.3637,-0.3589,-0.3562,-0.354,-0.3467,-0.3439,-0.3765,-0.3765,-0.3764,0,-0.3452,-0.3435,-0.3548,-0.3518,-0.3531,-0.3676,-0.3619,-0.3649,-0.3706,-0.3711,-0.3779,-0.378,-0.3825,-0.3763,-0.3714,-0.3723,-0.3709,-0.377,-0.3557,-0.3536,-0.3516,-0.3448,-0.342,-0.3753,-0.3754,-0.3756,-0.3757,0,-0.3254,-0.324,-0.3187,-0.324,-0.3248,-0.3204,-0.3309,-0.3303,-0.3377,-0.3439,-0.3397,-0.3457,-0.3477,-0.3468,-0.354,-0.3414,-0.345,-0.3535,-0.3653,-0.3471,-0.3409,-0.3384,-0.3737,-0.3741,-0.3744,-0.3747,0,0,-0.2922,-0.3038,-0.3017,-0.3042,-0.3117,-0.3107,-0.3068,-0.309,-0.3081,-0.3115,-0.3084,-0.308,-0.3159,-0.3176,-0.3253,-0.3211,-0.3047,-0.3302,-0.3305,-0.325,-0.291,-0.2844,-0.2812,-0.3108,-0.3103,-0.31,-0.2905,0,-0.2729,-0.2672,-0.2772,-0.269,-0.2676,-0.2813,-0.2779,-0.282,-0.2877,-0.2872,-0.2935,-0.2929,-0.3035,-0.3047,-0.3011,-0.3075,-0.298,-0.309,-0.3077,-0.3075,-0.3058,-0.278,-0.2711,-0.2524,-0.2882,-0.2878,-0.2875,0,-0.2497,-0.252,-0.2436,-0.2515,-0.2514,-0.2481,-0.2508,-0.2503,-0.2551,-0.2595,-0.2614,-0.2705,-0.267,-0.2785,-0.2737,-0.281,-0.281,-0.284,-0.2836,-0.2837,-0.2963,-0.2772,-0.2468,-0.2438,-0.2838,-0.2841,-0.2844,0,-0.226,-0.2271,-0.2222,-0.2239,-0.2331,-0.2304,-0.2341,-0.2395,-0.2401,-0.2423,-0.2428,-0.2445,-0.2453,-0.2463,-0.2555,-0.2631,-0.2495,-0.2618,-0.2529,-0.2526,-0.2493,-0.2493,-0.2182,-0.2495,-0.2496,-0.2496,-0.2497,0,-0.2033,-0.1976,-0.2117,-0.2086,-0.2026,-0.2141,-0.2077,-0.2127,-0.2174,-0.2154,-0.2272,-0.225,-0.2374,-0.2365,-0.2437,-0.2384,-0.2388,-0.2421,-0.244,-0.2409,-0.2405,-0.241,-0.2425,-0.2489,-0.2491,-0.2492,-0.2493,0,-0.1759,-0.1851,-0.1807,-0.1897,-0.1918,-0.1869,-0.1945,-0.1919,-0.1984,-0.1957,-0.1957,-0.2057,-0.2052,-0.2145,-0.2159,-0.2207,-0.2122,-0.2165,-0.2105,-0.2118,-0.2023,-0.2029,-0.1702,-0.1664,-0.2003,-0.2,-0.1997,0,-0.1607,-0.1567,-0.1652,-0.1648,-0.1679,-0.1671,-0.1677,-0.1787,-0.1789,-0.184,-0.1807,-0.1812,-0.1822,-0.1807,-0.188,-0.189,-0.1933,-0.1818,-0.1936,-0.1905,-0.1929,-0.1929,-0.1925,-0.1793,-0.1788,-0.1785,-0.1782,0,-0.1327,-0.1375,-0.1381,-0.1401,-0.1405,-0.1426,-0.1455,-0.1444,-0.1565,-0.1559,-0.1557,-0.1564,-0.1578,-0.158,-0.1604,-0.164,-0.1728,-0.1745,-0.1724,-0.1691,-0.1657,-0.1672,-0.2036,-0.1751,-0.1754,-0.1757,-0.1758,-0.176,-0.1109,-0.1078,-0.1133,-0.1135,-0.1168,-0.1191,-0.1171,-0.1233,-0.1233,-0.1254,-0.1319,-0.1304,-0.1351,-0.1393,-0.142,-0.1408,-0.1465,-0.1435,-0.1428,-0.1418,-0.1399,-0.166,-0.1413,-0.1414,-0.1415,-0.1416,-0.1417,0,-0.0834,-0.0876,-0.0876,-0.0912,-0.0912,-0.0999,-0.1035,-0.1028,-0.1014,-0.1052,-0.1059,-0.1054,-0.1057,-0.1129,-0.114,-0.1116,-0.1157,-0.1115,-0.1117,-0.1123,-0.1349,-0.1365,-0.1081,-0.1081,-0.1081,-0.1081,-0.1081,-0.1082,-0.0691,-0.0643,-0.0696,-0.0665,-0.0707,-0.0695,-0.0707,-0.0728,-0.0759,-0.0748,-0.0751,-0.0799,-0.085,-0.0865,-0.087,-0.0891,-0.0888,-0.0831,-0.0865,-0.1075,-0.1107,-0.1138,-0.1154,-0.083,-0.083,-0.064,-0.0639,-0.0637]}]]